Location: Newark
(40.7060°N, 73.9980°W)
Time: 14:55:13
(UTC+00:00)

X-37B - Pass Details

Date: 12 March 2021
Orbit: 380 x 394 km, 45.0° (Epoch: 07 April)

Event Time Altitude Azimuth Distance (km) Brightness Sun altitude
Rises 01:25:07 0° 258° (WSW) 2,270 5.3 -28.0°
Reaches altitude 10° 01:27:12 10° 262° (W) 1,419 4.1 -28.4°
Enters shadow 01:27:40 13° 264° (W) 1,237 3.8 -28.5°
